Wind_Speed
85 86 87 87 88 89 89 90 92 92 92 91 90 88 86 84 82 80 78 75 73 72 70 69 67 67 65 64 63 63 63 63 63 64 65 61 58 59 58 57 57 58 57 57 58 56 54 53 52 51 49 48 46 44 42 41 40 40 38 34 28 23 22 23 23 21 22 23 22 23 24 23 23 21 19 17 15 14 13 12 12 12 10 9 9 10 11 13
81 83 85 85 87 87 88 88 90 92 92 92 91 90 88 86 84 82 80 78 76 74 72 70 69 68 67 66 64 64 64 63 64 65 64 59 60 61 60 58 57 57 57 58 60 58 56 55 53 52 51 50 48 46 45 43 43 42 40 35 28 23 24 27 26 22 22 23 23 23 24 25 24 22 21 19 17 15 14 13 14 14 12 10 10 11 13 14
76 80 81 82 84 86 87 87 88 90 91 92 92 91 90 88 86 84 82 81 78 76 74 72 71 69 68 67 66 66 65 65 67 65 60 59 63 62 59 56 55 56 57 59 61 61 59 57 56 54 54 52 50 49 48 46 45 43 42 36 28 25 28 28 26 24 24 23 23 23 23 25 24 23 22 21 19 17 15 15 15 15 13 12 11 12 14 15
69 74 78 79 81 83 85 85 86 87 89 91 91 92 91 90 88 86 84 83 81 79 76 74 73 71 70 69 68 68 67 69 69 64 58 59 63 64 62 56 53 55 57 59 62 64 62 60 58 57 56 54 52 50 50 49 47 45 42 35 29 30 31 29 28 27 27 24 22 21 22 24 24 23 23 22 21 19 18 17 16 16 15 13 13 13 14 15
67 69 73 76 78 80 82 83 84 85 86 88 90 91 91 91 90 88 86 85 83 81 79 77 75 73 72 71 71 69 70 72 69 62 58 59 62 65 65 60 56 56 58 59 62 65 65 62 61 60 58 56 54 53 52 50 48 47 42 35 32 35 34 32 32 30 29 26 22 21 21 23 24 23 23 23 22 21 19 19 18 17 16 15 15 14 15 16
66 67 68 72 74 76 78 81 82 82 83 85 87 88 90 91 91 90 88 86 85 83 81 79 77 76 75 74 73 72 73 74 69 62 59 60 62 63 64 63 60 59 61 62 62 65 66 65 64 63 60 56 55 54 52 50 50 48 42 36 35 37 36 36 35 34 34 31 27 23 21 22 23 23 24 23 23 23 21 21 19 18 17 17 16 15 16 17
66 66 66 67 70 73 74 77 79 80 80 82 83 85 87 89 90 90 89 88 87 85 84 81 80 78 77 76 76 76 76 72 66 62 60 62 63 63 64 63 62 63 64 65 65 66 67 67 66 64 62 59 56 55 53 51 52 50 44 39 37 39 39 39 38 37 37 36 34 30 25 23 23 23 23 23 25 25 22 22 21 20 19 18 17 17 17 18
64 65 66 65 66 69 70 73 76 77 78 80 82 83 84 86 88 90 89 89 88 87 86 84 82 80 79 79 77 79 77 68 63 61 61 63 63 64 66 64 63 64 64 65 66 66 67 68 67 65 64 61 58 56 54 53 54 52 47 41 39 40 40 41 42 40 39 39 39 36 31 28 26 24 22 21 26 26 24 23 22 22 21 19 18 17 18 19
64 65 67 67 65 66 67 69 71 74 76 77 80 81 82 84 85 88 89 89 88 87 87 86 84 82 81 80 79 81 75 64 62 62 63 64 63 65 66 65 64 64 65 65 65 67 67 67 68 66 64 62 59 57 54 55 56 53 47 42 42 42 42 44 44 44 42 41 41 38 35 33 30 27 22 22 26 25 24 24 24 24 23 21 19 18 18 19
65 66 67 67 64 64 65 67 68 70 73 74 77 79 81 82 83 85 87 88 88 87 88 87 86 85 83 82 82 80 71 65 64 64 66 66 65 66 64 65 65 64 66 66 68 70 68 68 69 66 61 61 61 59 57 57 57 54 49 46 46 45 45 46 47 46 45 44 42 40 38 37 34 29 23 24 27 25 24 25 26 26 25 24 21 19 19 19
64 66 64 64 62 62 64 65 67 68 70 71 73 76 78 80 80 82 84 86 87 87 87 88 87 87 86 84 84 79 70 67 66 67 70 67 65 67 64 64 65 65 67 68 71 71 68 70 72 65 60 61 62 60 59 59 59 55 51 51 50 50 49 49 49 48 47 46 44 43 42 40 38 30 24 27 29 26 26 26 27 28 27 26 24 22 20 20
62 66 62 61 60 61 64 64 66 68 69 70 71 73 75 77 78 79 81 83 85 86 87 87 87 88 88 87 84 77 70 68 68 70 72 68 66 67 65 65 66 65 65 67 71 70 69 71 70 66 63 60 59 59 61 61 60 57 54 54 53 52 53 51 50 50 49 48 46 45 47 44 39 30 26 31 32 28 27 26 27 28 29 28 26 25 23 22
63 67 64 60 60 61 63 63 65 67 69 70 70 71 72 75 76 76 77 79 82 84 85 86 87 88 90 89 83 77 73 71 71 72 73 70 67 66 67 68 68 67 68 69 69 68 70 71 69 67 64 59 58 58 60 60 60 59 56 56 55 55 56 54 52 51 51 51 48 48 50 46 38 31 30 34 34 31 28 26 27 28 30 29 28 27 26 24
63 67 65 61 60 61 61 61 62 65 68 70 70 70 71 72 74 75 75 76 79 81 82 84 86 88 90 88 83 79 76 74 74 74 74 72 67 65 65 69 71 71 72 74 73 70 69 71 72 71 66 60 59 59 59 60 60 59 58 58 56 56 56 54 53 53 52 53 50 50 53 47 38 35 35 36 36 34 30 28 28 28 29 30 29 29 28 26
64 65 67 62 61 60 61 61 60 62 66 69 70 70 70 71 72 73 74 74 76 78 80 82 85 88 90 87 83 81 79 78 77 75 75 73 70 66 63 66 71 72 74 77 79 76 73 74 75 75 72 65 62 61 59 59 59 60 61 58 57 57 56 54 54 55 54 53 53 54 56 48 39 38 38 38 39 36 32 30 30 29 29 30 30 30 30 29
66 65 67 63 61 60 61 61 58 58 61 67 70 70 70 70 71 72 73 73 74 76 78 80 84 87 88 87 84 83 82 79 77 76 76 73 71 70 65 64 68 70 72 76 80 79 76 78 78 78 77 70 66 64 61 58 57 59 60 57 56 56 56 54 53 55 55 55 56 57 58 50 40 38 40 40 40 38 36 33 32 32 31 31 31 31 31 31
68 65 66 63 61 60 61 61 58 57 59 63 68 70 71 70 71 71 72 73 73 74 76 78 81 83 87 88 85 83 81 79 77 77 76 73 71 71 67 65 67 69 70 74 78 79 77 78 80 80 79 76 70 66 66 63 54 53 57 56 56 56 56 55 53 54 56 56 58 58 59 53 42 39 41 42 41 39 38 36 35 35 34 33 32 31 31 32
70 66 65 63 60 59 61 60 57 57 57 59 65 69 71 71 71 72 72 72 72 74 76 78 80 82 86 87 84 81 80 79 78 77 76 74 72 71 68 66 67 69 69 71 74 79 79 77 80 83 82 81 76 70 70 66 53 48 52 55 55 56 56 55 53 54 56 57 59 59 60 56 45 41 43 44 44 43 40 40 39 38 36 34 32 31 31 32
68 67 65 63 60 59 61 60 56 56 54 56 61 66 70 71 71 72 72 73 73 75 77 79 81 83 85 84 80 80 80 79 79 78 78 76 72 71 71 68 67 68 69 72 74 77 78 76 81 87 85 82 81 75 68 63 58 52 49 51 54 55 57 56 54 53 53 57 59 59 60 57 49 46 47 47 48 48 45 44 43 40 37 35 33 32 31 32
66 68 66 64 62 58 59 60 56 54 53 55 59 63 68 71 72 73 73 73 71 72 75 76 77 78 81 80 79 79 80 80 79 79 80 78 73 70 70 68 65 66 68 71 74 76 78 77 79 84 82 79 78 76 70 64 63 61 55 54 53 55 59 59 56 53 52 55 58 59 60 59 53 50 51 51 51 51 49 47 44 41 39 37 35 33 32 30
65 68 67 63 62 58 57 58 56 54 54 56 58 60 63 65 67 68 68 69 69 70 71 71 72 72 74 76 78 80 81 82 81 80 81 79 73 69 69 68 67 68 68 68 71 75 81 81 76 76 75 74 76 76 74 70 66 65 66 64 59 58 59 58 56 54 53 55 58 58 59 61 57 53 53 53 54 53 50 49 47 44 42 40 38 35 32 30
66 68 67 62 61 57 56 56 55 55 56 56 57 57 57 57 59 60 62 65 66 67 69 69 71 71 71 73 76 79 80 80 81 80 81 79 74 69 67 67 66 67 67 68 69 73 85 86 74 70 70 71 76 77 76 76 71 69 70 70 67 63 60 58 55 54 54 56 58 58 59 61 59 55 55 55 55 53 51 50 49 46 45 43 41 37 35 33
66 67 66 63 61 56 54 56 56 57 57 54 53 54 55 55 55 57 60 63 63 65 66 67 68 68 70 74 77 79 80 80 81 80 79 78 76 71 67 64 63 63 65 71 73 71 82 87 71 64 69 71 74 78 77 78 78 75 72 70 69 65 63 60 56 54 54 55 57 57 57 60 60 56 55 55 55 54 52 50 49 48 47 45 43 40 38 36
65 66 67 63 61 56 53 55 58 58 55 52 51 52 52 52 53 56 58 62 63 64 64 64 64 65 67 71 75 77 79 82 82 81 79 77 75 71 68 65 62 62 65 71 76 73 75 81 73 64 69 72 73 77 80 79 81 81 77 73 70 68 65 62 58 55 54 56 57 56 58 60 59 57 54 52 54 54 52 50 49 49 49 47 45 43 41 38
65 65 67 64 61 57 54 56 59 58 54 52 51 51 51 52 52 54 56 60 62 63 64 65 66 66 65 67 71 73 76 81 82 81 80 77 75 71 66 65 64 64 67 70 76 78 73 78 82 73 69 73 74 77 82 82 81 82 81 77 72 70 69 65 61 57 56 57 57 57 61 61 58 56 54 51 52 52 50 50 50 49 49 49 48 45 42 38
67 65 66 65 61 57 56 58 58 57 56 54 51 49 50 52 52 52 54 58 62 63 64 64 65 66 66 68 70 71 74 77 78 79 78 76 75 70 63 63 63 64 68 69 73 78 76 78 87 82 73 76 78 78 80 81 82 83 81 78 76 73 71 68 64 60 59 59 58 58 62 63 60 56 53 50 50 49 47 49 49 48 49 49 48 46 42 40
68 64 65 65 61 59 59 57 56 56 57 55 51 49 50 50 50 51 53 58 62 61 61 63 63 64 65 66 69 71 74 76 76 77 75 71 70 67 62 61 62 63 65 67 72 78 77 78 87 87 78 77 80 78 78 80 83 83 78 77 77 76 74 70 65 62 60 59 60 60 60 65 63 57 53 49 47 47 46 46 46 45 46 46 45 44 42 41
68 63 64 65 61 59 58 55 54 55 54 53 51 50 50 50 50 50 53 59 60 57 59 61 61 62 63 64 68 71 72 73 74 76 74 69 66 63 60 59 59 62 64 67 71 75 76 80 86 86 78 76 79 75 74 79 81 78 76 76 76 74 74 72 68 64 62 62 64 62 60 65 65 59 54 49 47 47 43 42 42 40 40 40 41 41 41 41
68 63 63 65 61 58 57 54 54 54 53 53 53 52 51 51 52 51 53 58 58 56 57 58 59 61 63 64 67 69 70 72 71 72 72 69 65 62 59 56 56 59 64 69 69 69 74 76 77 83 79 73 75 74 73 78 77 73 73 74 75 74 73 74 71 66 65 67 68 65 62 64 66 63 57 49 47 45 39 37 38 36 36 38 39 40 39 40
68 62 62 66 64 61 58 55 55 54 52 54 55 53 52 52 53 54 55 57 56 54 54 54 57 59 61 63 66 68 70 73 72 68 67 67 67 64 59 56 56 60 65 69 68 66 72 73 74 85 82 69 68 74 77 78 75 72 71 72 74 75 73 73 72 67 67 70 69 65 61 62 65 64 58 50 43 39 35 35 36 34 36 37 38 38 39 39
67 61 61 67 67 63 58 56 55 53 52 53 54 54 53 52 53 56 57 55 53 53 52 53 54 55 59 62 63 66 68 71 73 70 66 64 65 65 62 59 59 64 67 70 70 67 70 75 79 87 86 72 66 73 79 78 73 71 71 72 72 72 70 70 69 65 67 72 70 66 62 64 67 61 56 49 40 36 35 34 34 32 34 37 37 38 39 39
66 60 61 65 67 62 57 55 54 53 53 53 53 55 55 54 55 57 55 51 51 52 51 50 50 51 55 58 60 63 65 66 70 71 67 64 64 64 64 62 61 66 68 67 67 66 69 75 81 89 92 78 66 73 82 78 72 69 71 74 73 71 70 70 70 67 66 68 67 66 65 68 70 62 55 50 39 36 37 34 31 32 35 37 37 39 40 39
64 59 59 63 65 63 57 54 54 55 55 55 55 56 56 58 59 56 53 52 51 50 48 47 48 48 51 55 59 61 62 63 65 68 66 64 62 60 60 61 61 64 66 62 60 63 68 73 79 87 92 82 68 74 84 79 72 69 70 76 76 74 74 74 75 72 67 66 67 68 66 69 73 65 60 56 43 37 37 34 33 35 36 36 37 39 40 39
62 59 59 61 64 62 57 54 56 57 56 58 59 59 59 60 57 53 52 52 50 49 48 48 47 48 50 52 56 59 61 62 63 64 63 63 63 60 59 61 61 60 60 58 56 60 67 74 82 86 88 84 70 71 83 79 70 68 69 74 77 76 76 75 76 75 69 65 68 72 71 71 72 67 62 60 49 40 36 32 31 33 35 35 35 37 38 37
61 59 58 60 63 61 56 55 57 57 58 59 60 61 62 59 53 52 51 48 48 50 49 47 47 49 49 50 53 56 59 60 62 63 61 61 63 62 60 61 63 62 59 56 54 56 61 71 81 83 84 86 72 65 77 74 66 68 68 70 74 75 75 75 75 75 70 66 68 73 73 68 66 64 62 63 57 46 39 32 28 30 33 32 33 35 35 36
61 58 57 58 60 59 55 56 58 57 58 60 61 62 60 55 51 49 47 44 47 49 48 47 48 48 49 50 53 55 56 59 61 62 61 59 60 60 60 60 64 67 64 60 58 56 54 59 70 73 78 88 77 63 68 67 62 69 72 72 74 72 73 75 75 74 70 70 72 74 71 64 61 62 61 63 61 49 40 36 31 31 33 31 31 34 35 37
61 59 59 59 57 56 55 56 57 57 58 60 62 61 56 52 51 48 44 44 46 46 46 47 48 48 48 51 53 54 55 57 60 62 60 59 60 60 61 61 64 67 63 59 60 58 51 50 58 65 72 86 84 72 70 65 59 67 76 76 74 73 74 74 73 75 74 73 75 74 71 66 64 64 59 59 60 47 37 37 34 33 36 33 31 35 36 38
61 56 59 61 57 54 55 57 58 59 60 61 61 58 53 51 49 45 43 44 44 44 45 46 47 49 49 49 52 53 54 56 59 61 60 60 61 60 61 62 66 67 59 53 58 59 53 50 54 58 65 79 88 85 83 77 65 63 70 76 78 80 80 78 77 79 78 77 77 73 71 70 67 67 63 58 58 48 37 35 35 34 37 35 33 35 37 39
61 54 54 60 60 56 55 57 59 60 62 63 61 58 54 49 45 44 44 44 44 44 44 45 46 48 49 49 50 51 54 55 56 57 59 61 61 59 60 63 67 69 61 54 58 61 58 58 56 56 61 72 81 83 86 86 74 60 59 68 74 77 80 82 84 84 81 79 78 75 74 74 69 66 65 63 62 55 43 38 37 34 36 37 35 37 38 39
61 56 52 55 59 58 56 57 60 61 62 62 59 55 52 49 47 47 46 45 46 45 44 45 46 48 49 49 49 50 52 53 53 55 57 60 61 60 60 64 69 72 64 57 59 60 59 61 57 54 60 67 72 79 85 88 78 63 57 60 64 68 73 78 81 83 82 80 78 76 76 76 70 66 66 65 66 63 51 44 40 37 37 38 36 38 40 40
61 58 55 55 58 58 58 59 62 63 61 58 56 53 51 49 48 47 46 46 46 45 44 45 46 47 47 48 49 51 51 51 52 54 56 58 61 62 61 65 71 74 66 58 57 56 57 59 55 52 57 63 69 76 82 83 78 66 60 60 59 63 70 75 78 81 83 80 77 74 72 71 68 65 65 66 67 66 56 47 43 39 39 40 39 40 42 43
57 57 55 55 57 57 58 62 63 62 60 55 52 51 50 49 48 47 47 46 46 45 45 45 45 45 46 47 48 48 50 51 52 53 56 57 59 61 61 64 73 77 71 61 56 52 50 54 55 52 52 54 63 72 72 72 71 65 61 59 57 59 66 73 78 81 81 79 76 72 71 71 68 65 64 65 67 66 57 47 43 41 40 41 42 42 43 43
55 56 53 52 55 56 59 63 64 61 57 53 50 50 50 49 48 47 46 46 47 46 44 44 45 45 46 48 48 45 44 47 51 52 53 55 57 59 61 66 75 81 77 69 63 55 49 51 54 52 49 47 53 65 69 67 69 67 63 60 58 59 61 65 71 75 77 77 75 73 73 71 68 65 64 64 64 64 58 49 45 44 42 42 42 43 44 44
54 56 55 53 55 57 60 63 63 59 55 52 51 52 50 49 48 47 46 46 47 46 44 44 45 46 47 48 48 44 38 41 48 50 50 54 55 57 63 69 76 81 81 76 71 63 54 51 51 50 51 50 51 57 64 68 72 71 64 59 59 59 59 61 64 68 74 75 73 74 71 64 60 59 59 61 60 59 57 52 48 48 46 43 42 43 43 44
51 53 56 56 57 59 61 61 59 57 55 52 51 51 49 48 47 46 45 46 46 45 44 44 46 47 47 47 48 47 40 38 42 46 48 52 55 58 65 71 75 78 79 77 75 71 62 55 52 52 54 56 54 54 59 65 73 75 69 62 60 60 61 62 61 64 70 73 73 73 66 55 53 53 55 57 57 54 54 53 51 51 50 47 45 45 45 46
50 53 58 60 61 62 61 60 58 56 54 51 49 48 47 46 45 44 45 46 46 45 44 45 48 49 49 47 46 47 44 40 40 43 46 50 54 59 65 70 73 74 76 75 75 75 70 60 54 52 54 57 56 54 55 58 63 67 66 61 58 59 61 62 62 64 65 66 70 68 57 48 49 50 52 54 53 52 54 54 52 52 51 48 45 46 48 49
54 58 63 64 64 64 62 60 59 56 52 48 46 44 44 44 44 44 44 44 45 45 45 47 49 51 49 45 43 44 44 43 42 42 44 47 51 56 62 68 71 71 72 72 71 72 73 67 59 53 52 57 60 62 62 60 58 59 59 58 56 55 56 59 63 63 60 61 68 65 55 50 48 46 48 51 50 49 49 50 50 52 53 50 47 49 50 49
55 57 61 62 62 61 59 56 55 52 50 49 47 44 44 45 45 45 44 44 44 45 47 49 50 50 48 44 41 42 43 44 44 42 42 44 48 53 58 65 71 71 69 69 67 68 72 70 66 61 57 57 60 63 63 61 61 60 59 58 57 54 54 57 58 58 58 59 62 58 53 52 49 45 46 49 50 49 48 49 51 53 56 56 55 56 53 50
53 54 56 58 57 55 53 50 50 51 50 49 48 47 46 46 45 44 44 45 45 45 47 50 49 49 49 46 44 44 43 45 44 41 40 41 44 49 54 63 71 70 69 68 65 67 71 66 61 63 64 62 61 61 59 58 58 58 57 57 56 53 51 52 53 53 54 54 52 49 49 52 51 46 42 44 48 51 49 49 50 53 56 59 59 58 57 54
51 52 52 53 53 52 52 51 50 50 49 49 49 47 46 45 44 44 45 46 45 44 46 48 49 50 51 50 49 47 44 44 42 38 39 41 44 46 50 60 69 68 68 70 65 66 71 64 53 52 57 63 67 65 61 60 59 56 54 53 52 50 49 50 51 51 53 53 49 46 48 52 52 46 42 45 49 49 47 45 45 48 51 54 57 58 58 58
51 52 53 52 50 51 53 52 51 50 50 50 48 45 44 43 41 42 43 44 45 44 45 47 48 51 52 53 53 48 41 40 39 36 36 39 42 43 45 55 68 69 68 69 67 68 72 68 56 49 52 60 69 71 69 68 67 65 63 59 56 53 51 51 51 51 53 54 50 48 48 49 50 47 43 45 47 45 42 39 39 41 42 45 50 55 57 59
52 53 54 52 50 50 52 52 52 52 50 48 45 43 42 41 40 42 44 45 45 45 46 48 48 50 53 54 52 46 38 37 37 35 35 37 40 41 40 46 58 65 66 66 67 70 73 73 66 58 54 56 63 72 75 74 75 77 77 73 70 67 64 61 59 57 55 54 52 50 45 43 46 46 41 41 45 45 41 38 37 39 39 39 43 48 53 56
Wind_Direction
240 238 235 232 232 232 231 231 231 230 230 229 229 228 228 228 228 229 229 229 228 227 226 226 226 227 227 226 226 227 226 227 227 228 230 231 231 229 228 228 227 227 228 231 233 234 232 231 231 233 233 231 229 230 231 232 233 235 237 235 232 231 230 227 228 228 228 229 226 223 223 229 238 242 244 241 239 241 241 237 232 226 222 229 236 233 227 224
238 238 237 233 231 231 231 230 230 230 229 230 229 229 228 228 228 228 229 229 228 227 226 225 225 226 227 226 226 226 227 227 227 228 230 226 226 227 225 226 227 227 228 230 233 234 233 232 230 232 234 232 230 230 231 231 232 234 235 235 230 228 230 228 228 229 230 231 229 226 222 223 230 237 242 242 239 238 241 240 236 230 221 221 230 231 228 225
236 237 237 235 232 231 230 230 230 229 229 229 229 229 229 228 228 228 228 229 229 228 227 226 225 225 226 226 226 226 226 227 227 227 228 224 225 226 225 224 225 228 228 229 233 234 234 233 231 230 232 233 230 229 231 231 232 232 233 232 228 227 230 228 229 230 230 231 231 230 226 224 224 230 237 240 241 238 238 241 239 236 226 219 225 228 230 228
234 235 235 236 233 230 230 230 230 229 228 228 229 229 229 228 228 228 227 228 229 229 228 227 225 224 225 226 226 226 226 227 227 226 225 223 224 228 229 228 227 229 230 229 232 234 234 233 233 232 231 232 232 231 231 231 231 232 232 230 226 227 228 226 226 226 227 228 230 230 229 228 223 225 231 235 240 239 237 241 243 242 234 224 223 225 229 230
232 233 233 234 234 231 229 229 229 229 228 228 228 229 229 229 228 228 227 228 228 229 229 228 226 225 225 225 226 226 226 228 227 224 222 223 224 226 230 232 230 231 232 230 232 234 234 234 234 233 231 231 232 233 232 232 232 232 231 228 225 228 228 226 224 223 224 225 226 228 229 230 225 223 227 230 236 237 237 240 244 246 242 233 226 223 227 229
231 231 231 233 234 232 229 228 228 228 228 227 227 227 228 229 229 228 228 227 228 228 229 229 227 226 225 225 226 226 226 227 226 223 222 223 223 225 227 229 229 230 233 232 232 234 235 234 234 234 233 231 231 233 234 234 234 234 231 227 226 228 229 229 226 223 224 225 227 228 229 231 227 225 226 226 231 233 234 237 240 245 246 241 233 226 226 228
231 230 230 231 232 232 230 228 228 228 228 228 227 226 227 228 229 228 228 228 228 228 229 229 228 227 226 226 226 226 227 227 227 224 224 225 225 225 225 225 226 228 232 233 231 232 236 235 234 234 234 233 231 231 233 234 235 234 231 227 227 229 230 232 231 226 225 227 230 231 231 232 229 227 226 226 229 228 230 234 236 241 245 245 240 233 229 229
229 229 229 229 231 231 230 228 227 228 227 227 227 226 226 227 228 228 228 228 228 228 228 229 229 229 228 227 227 228 228 226 227 226 225 227 227 226 226 224 224 225 231 235 231 230 234 236 236 235 235 235 234 232 233 234 236 235 232 228 228 230 231 233 234 231 227 228 232 233 232 233 231 229 227 229 231 227 227 232 233 236 240 244 244 239 236 233
227 228 228 228 229 230 229 228 227 227 227 227 226 226 225 225 227 228 228 228 228 228 228 228 229 229 229 228 228 228 227 225 227 227 226 227 228 228 228 227 226 225 228 233 233 231 233 235 236 237 236 236 236 236 235 235 236 236 234 231 231 231 232 234 236 235 231 229 231 233 232 232 232 230 229 235 236 227 225 230 231 233 235 238 242 243 241 238
226 226 227 227 228 228 228 228 227 226 227 226 226 225 225 225 225 226 227 228 228 228 228 228 229 229 230 229 229 229 226 224 225 227 227 226 228 229 229 229 227 226 227 231 233 232 232 233 233 234 235 236 237 237 237 237 238 236 234 233 231 231 232 233 235 237 235 232 232 233 233 232 231 228 229 240 241 231 225 228 229 231 232 233 237 241 243 242
227 225 226 226 226 228 227 228 227 226 226 226 225 224 225 224 224 225 226 227 228 228 228 228 229 229 230 230 230 229 226 225 225 226 228 226 227 229 230 230 230 228 228 231 232 228 228 230 231 231 233 234 236 236 237 238 238 237 234 233 231 231 231 231 233 236 237 235 233 234 234 232 230 226 228 241 243 236 229 228 228 230 231 231 231 235 240 242
226 224 224 224 225 227 226 226 227 226 225 225 225 224 224 224 224 224 225 226 226 227 228 228 229 229 229 230 230 228 226 226 225 226 229 228 227 229 228 228 229 228 227 231 230 225 225 227 228 229 230 232 233 235 237 238 238 237 235 233 232 232 231 231 232 234 237 237 234 234 234 232 229 225 228 240 242 240 235 232 231 230 231 230 229 231 235 239
224 222 222 223 223 224 224 225 226 225 224 224 224 224 223 224 224 224 224 225 225 226 227 227 228 228 229 229 228 228 226 226 226 227 229 229 228 229 229 228 227 225 225 227 226 223 224 225 225 226 228 229 230 232 234 237 238 236 236 235 233 233 232 231 231 232 235 238 237 236 236 232 229 225 228 237 241 240 237 236 235 232 232 232 230 229 231 235
222 221 220 221 221 221 222 224 225 225 224 224 224 223 222 223 223 224 224 225 224 225 226 226 227 228 229 228 226 227 226 225 225 226 228 228 228 229 231 231 229 227 225 225 225 225 225 224 224 223 224 225 226 228 230 234 236 236 236 236 235 235 234 231 231 232 233 236 238 238 237 232 228 226 228 235 238 238 237 236 237 235 234 234 232 230 230 231
219 219 218 219 220 219 220 223 224 223 223 223 223 223 222 222 222 223 223 224 224 224 225 226 226 227 228 226 225 226 226 225 226 227 228 228 227 228 229 231 232 230 229 228 228 229 228 225 223 222 222 222 222 224 225 228 233 235 235 235 235 237 237 233 232 233 233 235 237 239 239 233 227 229 231 235 237 236 236 236 236 236 236 235 234 232 230 230
217 217 217 218 218 217 218 221 222 221 222 223 223 223 222 221 221 222 223 223 224 224 224 225 226 227 227 225 224 224 225 225 226 227 229 228 228 229 229 232 235 234 231 231 230 230 229 225 223 222 221 221 222 222 222 223 228 232 234 235 235 237 239 236 234 234 234 235 237 239 241 235 228 231 233 234 236 235 235 235 236 235 235 236 235 233 232 232
216 216 217 218 218 217 217 220 221 221 222 222 223 223 223 222 221 221 222 222 223 223 224 224 225 226 225 223 223 224 224 225 226 228 229 229 229 229 230 230 234 235 233 233 231 229 227 224 223 223 220 220 222 223 222 221 222 228 232 234 235 235 238 238 235 236 236 237 237 239 243 239 231 230 234 234 234 234 234 234 235 235 235 235 234 234 233 234
216 215 215 217 218 217 218 219 220 221 221 222 222 223 223 222 221 221 221 221 222 223 223 223 223 224 224 222 223 224 224 225 227 228 229 230 230 229 230 229 230 234 234 234 232 228 226 226 225 223 220 219 220 222 222 221 221 226 231 233 235 235 236 238 236 235 237 238 239 239 243 242 235 231 234 236 236 235 234 234 235 234 234 234 234 233 233 234
214 213 213 214 215 216 218 219 220 220 220 221 222 222 222 222 222 221 221 221 222 223 223 224 224 225 224 222 223 224 224 225 227 228 229 230 230 229 230 230 230 232 233 233 232 229 226 228 226 223 221 219 220 223 224 223 224 226 231 233 235 235 235 237 236 236 237 240 241 241 243 243 238 234 235 237 238 238 235 234 234 235 236 235 233 232 232 233
211 213 212 212 213 215 217 219 220 219 217 218 220 221 221 221 222 221 221 221 223 224 225 225 226 226 224 222 223 224 224 225 226 227 229 230 231 230 229 230 230 231 232 232 232 230 226 225 226 224 222 221 221 223 224 225 226 226 229 231 232 232 232 233 235 236 237 240 243 243 244 244 240 236 235 237 239 239 236 235 234 235 237 236 234 232 232 233
210 212 211 211 212 214 216 218 219 218 216 217 219 222 223 223 224 224 224 224 224 225 226 225 226 225 223 221 221 222 223 224 225 226 228 229 229 229 228 229 229 231 234 235 232 230 226 225 226 225 223 222 221 221 223 225 225 226 228 230 230 231 231 231 232 234 235 237 240 242 243 244 241 237 236 238 239 239 238 237 236 235 237 237 235 232 231 231
209 211 211 210 210 211 215 217 218 217 216 217 219 221 223 224 225 225 225 226 226 227 226 225 224 223 222 220 220 221 221 222 223 225 227 228 229 228 228 230 232 232 234 236 232 228 226 225 225 225 223 222 220 219 222 223 224 226 227 229 231 232 234 233 231 231 233 235 237 239 241 243 242 238 236 237 238 238 237 236 237 236 236 236 235 233 231 229
206 209 210 210 209 209 212 215 216 216 216 217 218 220 221 221 222 222 223 224 225 227 227 225 224 223 222 221 220 221 221 221 223 225 227 229 230 230 229 229 232 232 232 234 233 231 228 224 222 224 224 223 221 219 220 222 223 226 228 228 230 233 235 235 233 232 233 235 237 239 241 242 242 239 236 236 237 238 238 236 236 236 236 236 235 234 232 231
203 207 210 209 208 208 209 212 216 216 215 215 217 218 219 220 220 220 221 223 223 224 225 225 224 222 222 221 220 221 221 220 221 224 226 229 231 231 230 228 230 232 232 234 235 234 231 224 220 226 226 223 223 220 219 222 222 225 227 228 230 232 234 235 234 233 234 237 238 240 243 241 241 240 237 236 238 238 238 238 235 235 236 237 236 235 233 232
202 205 209 209 208 208 208 211 214 215 214 215 216 216 218 219 220 219 220 223 223 222 222 222 222 221 220 220 220 221 221 220 220 223 225 228 230 232 232 230 229 231 232 235 236 235 231 224 220 225 230 225 223 221 219 221 223 224 227 228 230 232 234 234 234 233 235 237 238 240 243 241 238 240 238 236 238 237 237 237 235 235 236 236 236 236 235 233
201 203 208 209 208 207 208 211 212 212 212 214 215 215 216 218 219 218 220 223 223 222 222 222 222 220 219 220 219 220 221 220 220 223 225 227 229 232 232 230 230 232 235 237 238 236 231 225 221 222 228 227 224 222 219 220 223 224 225 228 231 234 234 235 235 234 236 238 238 239 243 243 239 238 238 236 237 237 236 236 235 235 236 236 237 237 237 235
200 202 206 208 208 206 207 209 210 210 211 212 213 214 216 218 219 219 220 223 223 221 222 222 221 219 219 220 220 220 221 219 220 223 225 227 229 231 231 229 229 232 234 234 235 235 230 227 224 221 223 225 223 222 219 219 223 223 223 226 231 235 236 237 237 236 236 238 240 239 242 246 241 235 236 236 236 237 235 236 235 236 237 238 239 239 238 238
198 199 203 207 209 208 208 209 209 210 211 212 212 214 216 217 219 219 220 224 222 220 221 221 221 219 217 219 219 221 220 218 220 222 223 226 228 230 231 230 231 233 234 233 233 235 231 228 227 222 221 223 222 221 219 220 223 223 223 226 230 234 236 237 239 238 237 238 239 238 240 245 241 235 235 234 235 236 233 236 238 238 240 241 241 239 237 237
197 198 201 205 209 209 209 209 210 211 211 211 212 214 216 217 219 219 221 224 222 220 221 221 220 219 217 218 219 219 218 217 219 221 222 224 224 227 230 229 230 231 233 234 234 234 231 230 228 221 221 224 222 220 219 219 222 222 223 226 228 232 234 237 238 238 239 238 237 237 238 243 242 237 236 232 232 238 236 237 241 241 242 241 239 239 235 235
196 197 199 204 208 209 207 206 208 210 210 211 212 213 216 218 219 220 222 223 222 221 222 221 221 220 218 219 219 218 218 217 217 219 222 224 223 224 226 225 226 228 230 232 232 230 229 228 223 218 218 222 222 220 218 218 220 221 223 225 227 230 231 234 237 237 239 238 235 235 236 242 242 237 236 233 230 237 239 237 240 239 241 241 238 238 236 234
195 197 198 203 208 210 208 206 205 206 208 210 212 212 214 216 217 221 223 222 223 223 222 222 222 221 219 219 219 218 219 218 216 217 221 223 224 223 221 219 221 225 228 231 230 229 228 226 221 216 215 218 223 221 216 216 220 223 225 225 226 229 229 232 234 235 239 239 236 236 237 242 242 232 232 234 228 233 237 236 239 239 240 241 239 238 236 235
194 197 198 203 208 210 211 210 207 204 206 209 212 212 213 214 215 219 220 220 223 224 223 224 223 223 222 221 220 219 220 219 217 218 221 222 224 225 224 222 220 223 227 230 230 229 228 226 222 217 215 217 223 220 213 214 220 224 227 226 225 228 229 230 232 232 237 238 236 237 237 241 240 233 234 236 227 230 234 232 236 238 237 237 237 238 237 234
193 196 199 203 206 208 209 210 208 205 205 208 210 211 213 216 218 219 219 219 222 223 223 225 224 224 224 222 221 220 219 219 217 219 221 222 224 225 226 224 222 225 230 232 234 230 226 228 226 222 218 216 219 217 211 212 219 221 225 227 226 227 228 230 231 231 233 235 235 237 237 238 240 236 237 237 228 225 230 229 230 233 236 236 235 237 238 234
193 195 199 201 204 206 206 207 209 208 207 208 211 211 212 216 218 218 220 220 221 222 223 224 224 223 223 221 221 220 219 218 217 219 221 221 222 220 219 218 216 221 228 231 234 232 227 227 228 226 222 217 216 216 211 213 222 221 222 227 227 227 228 230 232 232 233 234 235 237 235 236 238 236 234 237 232 225 226 227 228 233 237 238 237 237 239 237
193 196 199 200 202 203 204 205 208 210 210 211 213 214 215 216 216 217 219 220 221 224 223 224 224 224 223 223 222 221 220 218 218 220 221 222 223 222 220 217 213 214 221 225 228 230 228 228 228 229 226 219 217 216 213 218 227 224 222 227 228 226 227 230 232 233 233 232 232 235 236 235 238 238 236 239 238 230 226 224 224 234 238 238 239 238 237 236
193 197 197 199 201 201 201 204 208 209 211 214 216 218 219 220 221 222 222 221 223 225 225 224 225 224 223 223 223 222 219 218 219 221 222 222 224 225 222 219 215 213 219 225 227 228 229 229 229 229 227 220 217 217 217 222 228 224 223 225 225 225 227 230 233 234 233 232 231 233 236 234 235 237 237 240 241 235 228 224 221 230 238 236 235 235 233 232
193 197 197 197 199 200 200 202 207 208 209 214 218 220 222 223 224 224 224 224 225 227 227 227 227 227 226 225 225 224 222 220 219 221 221 220 222 222 218 217 215 214 218 225 228 229 230 231 230 230 228 222 218 219 222 226 229 227 225 225 224 226 228 230 233 236 235 234 233 233 235 235 234 234 234 237 241 236 224 223 222 226 235 236 231 231 231 230
194 196 199 198 196 200 202 202 208 211 211 214 217 218 220 221 222 222 222 223 225 227 228 228 229 230 229 227 226 225 225 225 223 223 223 221 222 221 216 213 212 211 213 218 223 226 226 226 228 228 226 222 220 222 226 227 229 229 227 225 226 229 229 228 230 233 235 236 236 235 236 236 235 235 234 236 242 239 226 224 226 226 233 234 229 229 230 229
196 196 199 200 199 202 205 204 208 212 214 215 216 216 217 218 219 221 221 223 224 227 227 227 229 231 230 229 227 225 226 228 228 228 228 226 225 222 216 212 210 209 210 212 217 222 223 223 225 226 224 221 221 225 228 227 227 229 226 224 227 230 231 231 230 231 233 236 237 237 238 238 237 237 237 237 241 242 234 229 230 228 230 230 226 227 228 229
196 196 196 198 200 202 205 206 208 212 214 215 216 217 218 218 220 220 222 224 225 227 228 227 229 231 230 229 227 225 225 227 228 229 230 230 229 224 216 211 207 207 210 214 214 217 221 223 226 227 225 223 223 226 228 228 227 228 225 223 225 228 230 232 233 233 234 237 239 239 239 239 239 239 239 239 240 241 238 235 232 228 227 226 224 225 227 228
194 196 196 196 198 201 203 206 209 212 214 215 216 217 219 220 221 221 222 223 225 227 228 228 229 229 229 227 226 227 226 226 228 227 228 228 226 222 215 209 206 206 210 216 216 214 218 221 224 226 227 225 225 227 229 230 230 230 227 226 227 228 229 231 233 233 234 236 239 241 241 240 238 238 238 238 240 240 238 236 232 225 223 223 221 222 226 228
196 197 197 197 199 202 204 207 210 211 214 215 215 216 218 218 220 221 222 224 226 228 228 227 227 227 225 223 223 225 227 228 229 229 228 227 223 219 214 208 206 207 210 217 219 215 216 219 221 225 228 228 226 226 227 227 227 228 228 227 229 231 232 233 233 232 233 235 236 239 240 238 235 235 235 236 238 238 236 234 230 222 217 219 219 220 224 227
198 199 199 200 202 204 206 208 208 207 210 213 213 214 215 217 219 221 223 225 227 229 229 228 227 225 223 221 220 221 225 229 229 229 227 226 222 216 211 207 207 209 212 217 219 217 218 221 220 220 225 227 225 224 223 223 222 225 228 229 229 232 233 235 235 234 235 235 235 237 239 236 234 234 235 236 237 238 236 232 229 223 217 217 218 219 222 226
198 199 198 201 204 207 210 211 209 207 209 212 212 213 214 216 218 221 223 226 227 228 228 227 226 225 222 220 218 217 222 228 229 227 224 223 220 213 209 207 208 211 213 216 219 218 219 223 222 218 218 220 223 223 221 221 223 226 230 232 231 231 232 234 235 236 236 234 234 238 240 237 235 236 238 239 239 239 238 233 230 227 221 218 219 220 222 225
197 197 198 202 205 208 212 213 212 211 211 211 212 212 213 214 217 219 222 225 226 226 226 224 224 222 219 217 216 215 217 223 226 226 224 222 217 212 209 208 209 212 214 215 219 220 221 224 223 221 218 216 219 221 219 221 225 228 232 234 233 231 231 231 232 235 235 233 234 238 239 236 235 235 238 240 240 240 238 234 230 228 225 223 222 222 223 225
195 197 199 202 205 208 212 213 211 209 208 209 211 211 212 214 217 219 221 224 225 225 224 222 221 219 216 214 214 216 220 221 221 224 224 223 218 213 212 211 210 211 213 214 219 221 223 224 222 221 221 219 221 223 222 221 225 228 231 233 234 233 233 232 233 235 235 234 235 236 235 233 232 231 233 237 238 237 236 233 228 227 228 226 224 225 227 228
196 201 201 201 203 205 208 209 208 206 205 208 211 212 214 215 217 219 221 224 225 225 222 219 217 216 214 211 211 216 222 221 220 222 223 223 221 217 215 213 211 210 211 213 217 220 222 223 221 221 223 223 225 230 231 230 229 230 232 234 234 234 234 234 235 235 234 234 234 232 231 231 229 226 230 234 235 235 236 236 233 230 229 229 230 234 235 233
198 203 204 204 206 207 207 207 206 205 205 207 210 211 214 217 219 222 225 227 226 225 223 218 215 214 211 208 208 213 218 218 218 220 221 222 223 221 218 215 212 212 213 213 214 218 220 221 222 224 225 224 226 230 233 235 235 233 234 235 234 234 236 237 238 236 233 233 232 229 230 232 227 224 231 236 238 239 239 240 238 232 229 230 234 238 239 237
201 205 206 205 208 210 210 209 208 208 208 209 211 212 214 217 221 223 225 227 227 225 224 219 214 213 211 209 209 209 213 216 216 216 219 222 224 224 221 216 211 212 214 214 214 216 217 217 219 224 225 222 221 223 224 226 230 231 232 232 230 230 234 237 239 237 234 234 232 226 227 229 223 221 230 236 237 239 238 239 239 234 229 229 232 236 238 238
200 205 208 208 208 209 208 208 209 209 210 213 215 215 216 218 220 222 223 225 225 225 225 220 214 212 212 212 212 210 210 213 214 214 217 222 224 225 224 216 211 211 212 213 215 216 217 216 216 222 225 222 219 220 222 224 225 226 228 227 227 229 233 234 232 230 230 232 228 222 224 224 219 219 226 231 233 236 238 238 238 235 231 229 231 234 237 238
200 204 208 212 212 211 210 209 209 210 212 215 216 216 218 219 221 223 224 225 225 224 224 220 216 215 216 216 214 210 207 210 213 213 216 219 221 225 226 219 213 214 214 213 214 216 217 218 218 221 225 225 222 221 224 228 230 231 231 230 230 233 236 236 233 230 230 231 229 226 223 219 216 221 229 232 233 237 240 239 238 236 231 228 228 232 235 237
202 205 208 210 212 213 212 211 211 211 212 215 217 217 218 219 220 224 225 224 224 223 221 218 216 217 219 218 214 209 208 212 214 214 216 218 219 221 224 222 219 220 220 217 216 216 217 219 221 222 224 226 225 225 227 232 235 236 237 237 238 240 241 242 241 239 238 236 233 229 222 216 219 223 231 238 237 236 238 240 240 237 231 225 224 228 233 236
Height
5644 5650 5656 5663 5668 5672 5677 5682 5687 5692 5696 5701 5705 5710 5715 5719 5724 5728 5732 5736 5741 5745 5749 5754 5758 5761 5765 5769 5772 5775 5778 5781 5785 5789 5795 5807 5815 5817 5819 5823 5827 5830 5833 5834 5834 5837 5840 5843 5846 5847 5849 5851 5853 5856 5858 5860 5862 5864 5866 5870 5875 5877 5878 5878 5878 5879 5879 5880 5881 5881 5882 5883 5884 5886 5887 5888 5889 5889 5889 5889 5890 5890 5891 5892 5892 5893 5894 5894
5635 5639 5645 5653 5659 5664 5669 5673 5678 5684 5689 5693 5697 5702 5707 5712 5717 5721 5725 5730 5734 5738 5742 5748 5752 5755 5759 5762 5766 5769 5771 5775 5778 5783 5795 5805 5808 5810 5814 5817 5822 5827 5830 5831 5831 5833 5837 5840 5843 5845 5846 5847 5850 5852 5854 5856 5858 5860 5863 5868 5873 5876 5875 5875 5876 5877 5878 5879 5880 5880 5881 5881 5882 5884 5885 5887 5888 5888 5888 5888 5888 5888 5889 5891 5891 5892 5892 5893
5627 5630 5635 5642 5649 5655 5660 5665 5670 5675 5681 5686 5690 5695 5700 5705 5710 5714 5719 5723 5728 5732 5736 5741 5745 5750 5753 5756 5761 5762 5766 5769 5769 5780 5794 5800 5802 5806 5809 5812 5818 5823 5826 5828 5828 5829 5833 5836 5839 5841 5842 5844 5846 5848 5850 5852 5854 5857 5860 5866 5872 5873 5872 5872 5874 5876 5876 5877 5878 5879 5880 5879 5880 5882 5883 5885 5886 5887 5888 5887 5887 5887 5888 5889 5890 5891 5891 5892
5618 5622 5627 5632 5638 5645 5651 5657 5661 5667 5673 5678 5683 5687 5692 5697 5702 5707 5712 5716 5721 5724 5729 5734 5739 5744 5747 5751 5753 5756 5761 5759 5763 5782 5793 5794 5798 5802 5804 5808 5814 5818 5821 5824 5825 5825 5829 5832 5835 5837 5838 5840 5843 5845 5846 5849 5851 5853 5857 5865 5870 5869 5869 5870 5871 5873 5874 5875 5876 5877 5878 5878 5879 5879 5881 5883 5884 5885 5886 5886 5886 5886 5887 5888 5889 5890 5890 5891
5610 5614 5619 5623 5628 5635 5642 5648 5653 5658 5664 5669 5675 5679 5684 5689 5694 5700 5705 5709 5714 5718 5723 5727 5732 5737 5740 5744 5746 5750 5752 5749 5763 5782 5786 5788 5792 5796 5800 5805 5810 5814 5816 5820 5821 5822 5824 5828 5830 5832 5835 5838 5840 5842 5843 5846 5848 5850 5855 5863 5866 5865 5866 5868 5868 5870 5872 5873 5874 5875 5876 5876 5877 5878 5879 5880 5881 5883 5884 5885 5885 5886 5886 5887 5888 5889 5889 5889
5602 5607 5612 5616 5620 5626 5633 5639 5645 5650 5655 5661 5666 5672 5677 5681 5687 5692 5697 5702 5707 5711 5715 5720 5725 5729 5733 5737 5739 5742 5740 5745 5764 5777 5780 5782 5785 5789 5794 5799 5805 5809 5810 5814 5818 5819 5821 5824 5826 5828 5831 5835 5837 5839 5842 5845 5845 5847 5853 5859 5862 5862 5863 5865 5865 5867 5869 5871 5872 5873 5874 5874 5876 5876 5877 5878 5879 5880 5882 5883 5884 5885 5885 5886 5887 5888 5888 5888
5594 5600 5605 5609 5612 5617 5624 5631 5636 5642 5647 5653 5658 5664 5669 5673 5679 5684 5690 5695 5699 5705 5708 5713 5717 5721 5726 5729 5732 5733 5733 5747 5765 5773 5778 5777 5777 5783 5786 5791 5797 5801 5804 5809 5813 5815 5817 5819 5822 5825 5828 5831 5834 5836 5839 5842 5842 5844 5850 5855 5858 5859 5860 5861 5862 5864 5866 5868 5869 5870 5872 5873 5874 5874 5875 5877 5876 5878 5880 5881 5882 5883 5884 5884 5885 5886 5887 5888
5586 5592 5597 5601 5605 5610 5616 5622 5628 5634 5640 5645 5651 5656 5661 5667 5671 5677 5682 5687 5692 5697 5701 5706 5709 5713 5718 5720 5725 5724 5729 5752 5764 5769 5773 5769 5772 5776 5777 5783 5790 5794 5800 5804 5809 5811 5813 5816 5819 5822 5824 5828 5831 5834 5837 5838 5838 5841 5847 5853 5854 5856 5857 5858 5858 5860 5863 5864 5866 5868 5870 5871 5871 5872 5875 5875 5874 5876 5878 5878 5880 5881 5882 5883 5884 5885 5886 5886
5579 5585 5589 5594 5599 5604 5609 5615 5621 5626 5632 5637 5643 5649 5654 5660 5664 5670 5675 5680 5685 5689 5694 5698 5701 5706 5709 5713 5717 5716 5732 5756 5760 5762 5765 5763 5768 5769 5772 5779 5784 5791 5796 5799 5804 5806 5809 5813 5816 5819 5822 5825 5828 5831 5834 5834 5834 5838 5845 5850 5851 5852 5854 5854 5854 5856 5859 5861 5862 5865 5867 5867 5869 5871 5874 5873 5872 5874 5876 5876 5878 5878 5880 5881 5882 5883 5884 5885
5572 5577 5582 5587 5593 5598 5603 5608 5613 5619 5623 5629 5635 5641 5647 5652 5658 5663 5668 5673 5677 5682 5686 5689 5694 5699 5701 5706 5707 5713 5737 5752 5751 5755 5756 5757 5762 5763 5769 5775 5779 5786 5790 5793 5797 5800 5806 5809 5811 5816 5819 5822 5824 5826 5829 5830 5830 5836 5842 5845 5846 5847 5849 5849 5850 5852 5854 5857 5860 5862 5863 5864 5866 5869 5872 5871 5870 5872 5874 5874 5875 5876 5877 5879 5880 5881 5882 5883
5565 5571 5576 5582 5588 5593 5598 5602 5607 5611 5616 5621 5627 5633 5638 5644 5650 5655 5660 5665 5670 5675 5678 5682 5688 5690 5693 5697 5698 5714 5738 5743 5745 5748 5745 5751 5757 5758 5766 5771 5774 5780 5784 5788 5790 5795 5801 5802 5806 5812 5815 5816 5819 5822 5825 5825 5827 5832 5837 5838 5840 5842 5843 5845 5846 5848 5850 5853 5856 5858 5859 5860 5863 5868 5872 5869 5867 5870 5871 5872 5873 5873 5875 5876 5878 5879 5880 5881
5558 5564 5570 5577 5583 5587 5591 5595 5599 5604 5609 5614 5619 5625 5631 5636 5642 5648 5653 5657 5662 5666 5671 5676 5679 5682 5685 5687 5696 5719 5734 5734 5739 5740 5736 5745 5751 5754 5760 5764 5768 5774 5780 5783 5785 5790 5793 5795 5802 5807 5809 5811 5815 5818 5819 5821 5823 5827 5831 5832 5834 5836 5837 5840 5843 5844 5846 5848 5852 5854 5853 5856 5861 5868 5870 5865 5865 5867 5869 5870 5871 5871 5872 5873 5875 5876 5877 5878
5549 5556 5563 5569 5575 5580 5584 5588 5593 5597 5602 5607 5612 5618 5624 5629 5635 5640 5645 5649 5655 5659 5664 5668 5670 5674 5675 5681 5700 5718 5723 5726 5732 5731 5731 5739 5745 5749 5753 5756 5760 5767 5772 5775 5779 5783 5786 5792 5799 5801 5801 5805 5809 5811 5814 5816 5818 5822 5826 5827 5830 5831 5831 5836 5839 5841 5842 5844 5848 5850 5848 5853 5861 5867 5865 5861 5862 5865 5866 5868 5868 5869 5869 5870 5872 5873 5875 5876
5542 5548 5556 5561 5567 5573 5578 5582 5586 5591 5596 5600 5605 5611 5616 5622 5627 5633 5638 5642 5647 5652 5656 5659 5662 5665 5667 5681 5701 5707 5712 5719 5722 5723 5726 5732 5740 5743 5746 5750 5754 5758 5763 5768 5773 5777 5782 5787 5792 5794 5794 5798 5802 5804 5808 5811 5813 5817 5819 5821 5825 5826 5827 5833 5836 5837 5839 5840 5843 5844 5843 5850 5860 5862 5861 5859 5859 5862 5864 5865 5866 5867 5867 5868 5869 5871 5872 5873
5535 5542 5549 5555 5560 5566 5571 5576 5580 5585 5589 5594 5599 5604 5610 5615 5620 5626 5630 5635 5640 5644 5648 5651 5654 5657 5663 5680 5693 5698 5705 5709 5713 5719 5721 5726 5734 5738 5742 5745 5746 5751 5757 5762 5767 5771 5777 5781 5784 5787 5788 5791 5794 5796 5801 5804 5807 5810 5812 5816 5820 5821 5823 5829 5832 5833 5835 5837 5839 5839 5837 5846 5857 5858 5857 5857 5857 5859 5861 5863 5863 5864 5865 5866 5867 5868 5869 5871
5528 5534 5541 5548 5554 5559 5565 5569 5574 5578 5583 5587 5592 5597 5603 5608 5613 5618 5622 5628 5632 5636 5641 5643 5646 5651 5659 5675 5685 5691 5697 5703 5712 5715 5715 5721 5728 5733 5741 5743 5741 5745 5751 5755 5759 5764 5770 5774 5777 5780 5783 5787 5788 5791 5796 5798 5800 5802 5807 5813 5816 5818 5820 5825 5829 5830 5832 5833 5833 5833 5832 5842 5853 5854 5853 5853 5854 5856 5858 5859 5860 5861 5862 5862 5864 5865 5867 5868
5522 5529 5536 5543 5548 5555 5560 5564 5568 5573 5576 5581 5586 5591 5596 5601 5606 5609 5614 5620 5624 5629 5633 5635 5640 5644 5652 5668 5679 5686 5695 5703 5707 5707 5711 5718 5722 5728 5737 5739 5736 5737 5743 5749 5752 5757 5763 5766 5769 5772 5777 5780 5783 5787 5788 5789 5794 5799 5804 5808 5811 5814 5816 5819 5825 5827 5828 5829 5829 5829 5829 5837 5849 5851 5849 5849 5850 5852 5854 5856 5856 5857 5858 5859 5861 5863 5865 5866
5516 5524 5531 5538 5544 5551 5555 5558 5563 5566 5571 5576 5580 5584 5589 5594 5599 5602 5607 5612 5617 5620 5622 5625 5630 5633 5646 5667 5681 5687 5694 5697 5698 5703 5709 5711 5714 5723 5729 5731 5730 5731 5736 5741 5745 5749 5754 5759 5761 5763 5767 5771 5775 5778 5780 5788 5798 5801 5802 5805 5806 5810 5812 5814 5819 5823 5824 5824 5824 5826 5825 5832 5844 5848 5845 5846 5846 5847 5850 5851 5851 5852 5855 5857 5858 5860 5862 5863
5511 5518 5524 5531 5538 5544 5548 5553 5557 5561 5569 5573 5574 5577 5582 5587 5591 5595 5600 5604 5608 5611 5615 5622 5628 5636 5654 5674 5681 5683 5687 5690 5693 5698 5701 5702 5707 5714 5719 5723 5725 5727 5728 5731 5736 5740 5746 5751 5751 5752 5758 5764 5770 5775 5785 5796 5799 5799 5800 5801 5802 5805 5807 5809 5813 5818 5822 5821 5820 5822 5822 5827 5838 5843 5841 5841 5841 5842 5844 5845 5847 5849 5852 5854 5855 5857 5859 5860
5505 5512 5518 5525 5531 5538 5543 5548 5553 5559 5565 5566 5566 5569 5573 5578 5582 5587 5594 5600 5607 5611 5617 5625 5633 5643 5659 5670 5673 5675 5682 5685 5687 5691 5693 5696 5700 5705 5710 5714 5718 5719 5719 5724 5729 5733 5740 5742 5741 5747 5757 5767 5774 5780 5788 5793 5793 5796 5796 5794 5795 5796 5797 5801 5806 5813 5818 5817 5815 5818 5818 5821 5830 5835 5835 5836 5835 5836 5839 5841 5844 5847 5848 5850 5852 5854 5856 5857
5500 5506 5513 5520 5527 5533 5539 5544 5549 5554 5557 5559 5560 5564 5570 5577 5583 5590 5597 5603 5607 5610 5614 5622 5629 5639 5649 5657 5662 5666 5670 5672 5676 5681 5683 5686 5691 5694 5700 5706 5709 5711 5715 5721 5724 5728 5732 5732 5736 5749 5760 5768 5773 5777 5781 5784 5788 5789 5786 5785 5787 5788 5789 5794 5801 5807 5811 5811 5809 5812 5812 5813 5820 5827 5829 5830 5830 5831 5835 5837 5839 5843 5844 5846 5848 5850 5853 5855
5494 5501 5509 5516 5522 5529 5535 5540 5546 5549 5550 5551 5556 5563 5572 5578 5583 5592 5596 5599 5602 5604 5609 5616 5622 5630 5640 5646 5651 5653 5657 5663 5669 5672 5674 5677 5680 5685 5693 5701 5703 5706 5714 5715 5712 5718 5721 5723 5737 5751 5759 5762 5764 5769 5773 5777 5782 5779 5776 5778 5779 5782 5786 5789 5796 5801 5803 5804 5803 5805 5806 5806 5811 5819 5823 5824 5824 5826 5830 5832 5834 5837 5840 5841 5843 5847 5849 5851
5487 5497 5505 5511 5518 5524 5530 5537 5540 5541 5542 5548 5555 5562 5568 5572 5578 5583 5586 5589 5594 5597 5602 5609 5617 5627 5633 5637 5643 5646 5651 5659 5663 5666 5669 5671 5674 5681 5690 5696 5698 5703 5707 5703 5704 5711 5713 5724 5744 5751 5751 5754 5757 5762 5767 5770 5771 5769 5770 5774 5775 5780 5783 5786 5793 5797 5799 5799 5798 5801 5801 5801 5805 5811 5815 5818 5819 5821 5824 5828 5830 5832 5834 5837 5840 5843 5844 5846
5483 5492 5500 5507 5514 5519 5525 5530 5531 5533 5539 5546 5552 5557 5562 5567 5571 5576 5579 5582 5585 5589 5596 5604 5611 5617 5623 5629 5636 5639 5644 5652 5656 5659 5662 5665 5670 5677 5684 5690 5694 5696 5698 5698 5702 5707 5713 5731 5746 5744 5742 5747 5751 5755 5758 5759 5761 5763 5766 5769 5774 5777 5780 5784 5789 5792 5796 5795 5794 5798 5795 5794 5799 5803 5808 5813 5814 5816 5820 5823 5826 5827 5829 5832 5835 5837 5839 5842
5478 5486 5495 5503 5509 5516 5521 5521 5522 5529 5537 5541 5545 5551 5557 5561 5565 5570 5573 5575 5578 5584 5589 5594 5600 5607 5616 5622 5627 5632 5637 5643 5649 5653 5656 5660 5666 5670 5677 5684 5686 5687 5691 5695 5698 5701 5713 5727 5734 5736 5737 5740 5744 5746 5749 5753 5755 5758 5761 5767 5772 5774 5776 5780 5783 5788 5791 5789 5790 5793 5788 5785 5793 5797 5801 5808 5809 5811 5816 5818 5820 5823 5825 5827 5829 5832 5836 5839
5473 5482 5491 5498 5505 5512 5513 5512 5517 5525 5531 5535 5541 5547 5551 5555 5560 5565 5568 5569 5571 5576 5582 5588 5595 5604 5612 5615 5621 5628 5630 5637 5646 5650 5652 5656 5661 5665 5671 5674 5678 5683 5687 5692 5692 5694 5708 5719 5723 5729 5731 5731 5735 5738 5743 5749 5749 5750 5759 5768 5770 5770 5773 5776 5779 5784 5785 5784 5786 5788 5784 5780 5786 5792 5796 5802 5804 5807 5811 5812 5816 5819 5821 5823 5825 5829 5832 5835
5469 5478 5487 5494 5500 5504 5504 5507 5514 5520 5525 5531 5539 5544 5547 5551 5555 5560 5562 5559 5562 5571 5577 5584 5591 5600 5607 5611 5618 5619 5621 5635 5643 5642 5647 5652 5656 5659 5661 5665 5672 5677 5682 5684 5680 5683 5701 5711 5713 5720 5722 5721 5725 5731 5741 5745 5741 5747 5761 5767 5764 5766 5771 5772 5776 5779 5780 5782 5780 5781 5783 5776 5776 5786 5792 5797 5801 5803 5807 5809 5812 5816 5818 5820 5823 5826 5829 5830
5466 5474 5482 5491 5497 5499 5502 5507 5512 5516 5522 5530 5536 5539 5542 5546 5549 5553 5553 5550 5558 5568 5572 5578 5587 5595 5601 5605 5608 5609 5619 5634 5634 5634 5645 5648 5650 5653 5654 5660 5668 5673 5676 5674 5673 5685 5699 5703 5707 5716 5717 5714 5721 5733 5742 5741 5739 5749 5760 5760 5760 5765 5767 5769 5772 5774 5776 5776 5771 5775 5780 5772 5770 5780 5787 5793 5797 5798 5803 5807 5810 5813 5816 5818 5819 5822 5824 5825
5462 5469 5478 5488 5493 5496 5500 5505 5509 5513 5519 5525 5530 5533 5537 5539 5542 5545 5543 5544 5555 5562 5566 5574 5581 5587 5594 5597 5600 5607 5617 5623 5623 5631 5639 5639 5643 5648 5650 5657 5665 5669 5670 5667 5674 5687 5692 5698 5709 5713 5709 5711 5723 5734 5738 5736 5738 5750 5755 5754 5757 5759 5760 5763 5763 5767 5768 5764 5763 5770 5775 5771 5766 5771 5780 5788 5793 5796 5803 5807 5807 5810 5812 5812 5814 5816 5818 5819
5459 5467 5476 5483 5485 5487 5493 5500 5504 5509 5515 5519 5523 5528 5530 5531 5534 5535 5534 5541 5553 5560 5565 5572 5576 5583 5589 5592 5596 5604 5609 5612 5620 5629 5630 5631 5638 5643 5646 5654 5659 5662 5663 5662 5670 5680 5684 5692 5698 5696 5699 5711 5722 5726 5729 5732 5736 5743 5745 5746 5750 5749 5752 5755 5754 5760 5757 5750 5758 5768 5772 5771 5763 5764 5775 5784 5792 5797 5801 5803 5803 5806 5807 5807 5809 5811 5813 5814
5455 5463 5471 5475 5477 5482 5489 5494 5498 5504 5510 5514 5518 5521 5522 5524 5528 5526 5530 5544 5554 5557 5562 5567 5572 5579 5583 5587 5593 5600 5602 5607 5617 5620 5619 5624 5630 5633 5638 5645 5650 5654 5654 5654 5663 5672 5676 5678 5679 5683 5694 5707 5712 5714 5721 5727 5730 5734 5735 5738 5742 5742 5745 5746 5746 5751 5744 5741 5758 5768 5769 5768 5759 5761 5772 5781 5791 5796 5796 5798 5800 5802 5803 5803 5805 5806 5807 5809
5452 5460 5466 5470 5475 5482 5488 5492 5498 5503 5506 5509 5512 5514 5516 5518 5517 5520 5533 5546 5549 5552 5561 5566 5571 5577 5581 5586 5591 5594 5597 5603 5612 5613 5613 5619 5622 5626 5632 5637 5643 5646 5645 5649 5659 5665 5667 5668 5674 5682 5691 5698 5702 5706 5712 5717 5720 5726 5729 5730 5733 5734 5736 5737 5736 5739 5735 5741 5760 5764 5761 5759 5755 5762 5771 5776 5788 5792 5791 5795 5797 5797 5798 5798 5800 5800 5802 5804
5449 5457 5462 5466 5472 5479 5485 5491 5494 5497 5500 5503 5505 5508 5511 5509 5511 5523 5537 5543 5545 5553 5561 5564 5569 5574 5577 5581 5584 5588 5592 5598 5606 5608 5609 5614 5617 5622 5628 5633 5641 5644 5645 5652 5657 5658 5661 5664 5668 5674 5680 5687 5693 5697 5701 5706 5712 5718 5720 5722 5725 5726 5727 5727 5728 5730 5733 5744 5758 5756 5751 5750 5752 5762 5766 5769 5782 5788 5788 5791 5792 5792 5793 5793 5795 5795 5797 5799
5447 5454 5457 5462 5469 5475 5482 5487 5488 5492 5496 5497 5499 5502 5502 5503 5514 5528 5534 5539 5546 5553 5556 5559 5564 5567 5569 5574 5578 5582 5586 5592 5599 5601 5604 5607 5608 5613 5621 5626 5635 5641 5645 5649 5649 5651 5655 5655 5658 5665 5673 5682 5688 5692 5699 5705 5709 5713 5716 5719 5720 5720 5721 5723 5724 5726 5734 5746 5752 5743 5737 5743 5751 5759 5762 5765 5775 5783 5785 5788 5789 5789 5790 5790 5791 5792 5794 5796
5445 5449 5452 5457 5463 5470 5478 5482 5484 5488 5490 5492 5496 5496 5495 5504 5518 5525 5529 5539 5546 5547 5551 5557 5559 5561 5565 5570 5573 5576 5581 5588 5592 5593 5596 5599 5601 5608 5616 5621 5629 5636 5639 5639 5641 5646 5648 5650 5658 5668 5675 5683 5689 5695 5701 5704 5703 5706 5713 5713 5711 5716 5721 5722 5720 5723 5733 5741 5738 5728 5727 5743 5755 5758 5761 5761 5766 5777 5783 5785 5787 5786 5787 5788 5789 5790 5791 5792
5440 5444 5449 5453 5459 5466 5474 5478 5482 5485 5486 5488 5490 5490 5497 5510 5519 5523 5531 5539 5540 5542 5548 5552 5553 5556 5561 5565 5566 5571 5576 5581 5584 5586 5589 5595 5599 5605 5613 5618 5625 5631 5633 5635 5639 5643 5645 5649 5656 5663 5668 5676 5686 5693 5695 5694 5695 5700 5702 5700 5706 5717 5719 5717 5716 5719 5726 5727 5724 5721 5728 5746 5753 5751 5756 5756 5758 5771 5779 5781 5784 5783 5782 5784 5785 5786 5788 5788
5434 5438 5444 5449 5457 5465 5470 5475 5479 5481 5482 5483 5485 5491 5503 5512 5516 5522 5530 5534 5535 5539 5543 5545 5548 5552 5557 5560 5562 5568 5573 5575 5576 5578 5583 5589 5591 5597 5607 5613 5620 5626 5631 5636 5638 5641 5646 5649 5653 5656 5662 5672 5683 5686 5685 5687 5692 5692 5692 5700 5711 5713 5709 5712 5715 5714 5715 5715 5715 5720 5730 5741 5745 5745 5752 5754 5753 5765 5776 5777 5779 5778 5777 5779 5781 5782 5783 5784
5430 5437 5442 5449 5458 5464 5468 5472 5475 5476 5477 5478 5483 5493 5502 5507 5513 5521 5525 5528 5531 5534 5537 5542 5546 5550 5553 5556 5560 5566 5568 5569 5571 5574 5579 5583 5584 5593 5603 5608 5615 5623 5629 5633 5634 5637 5643 5646 5646 5650 5658 5668 5674 5674 5674 5678 5682 5684 5692 5703 5704 5697 5698 5705 5705 5702 5704 5706 5710 5720 5727 5732 5737 5742 5749 5752 5752 5760 5771 5774 5774 5775 5774 5775 5777 5778 5779 5781
5430 5436 5440 5447 5456 5461 5465 5468 5469 5471 5472 5474 5481 5490 5498 5505 5512 5517 5520 5524 5527 5529 5533 5539 5543 5545 5548 5552 5557 5561 5562 5564 5569 5573 5575 5578 5583 5593 5600 5605 5612 5619 5624 5627 5628 5633 5639 5640 5641 5646 5652 5657 5659 5659 5661 5667 5674 5680 5688 5692 5688 5689 5694 5696 5694 5695 5700 5702 5707 5717 5719 5721 5732 5741 5746 5750 5751 5755 5765 5769 5770 5771 5771 5771 5773 5774 5775 5777
5428 5433 5438 5445 5452 5457 5461 5464 5465 5465 5466 5472 5482 5491 5498 5504 5508 5512 5517 5521 5523 5526 5531 5536 5538 5540 5544 5549 5553 5555 5556 5559 5564 5567 5570 5575 5583 5590 5596 5602 5609 5615 5620 5621 5623 5629 5633 5634 5637 5641 5644 5645 5645 5648 5656 5664 5670 5675 5678 5679 5680 5685 5688 5689 5690 5694 5698 5700 5704 5710 5709 5715 5731 5739 5741 5746 5747 5749 5759 5764 5766 5768 5768 5768 5770 5771 5771 5773
5425 5432 5436 5442 5448 5453 5456 5458 5457 5459 5464 5473 5482 5489 5496 5501 5505 5509 5513 5516 5519 5523 5528 5531 5533 5536 5540 5544 5547 5550 5553 5555 5558 5561 5564 5569 5577 5583 5590 5598 5605 5610 5613 5614 5617 5623 5625 5628 5633 5634 5634 5637 5642 5650 5660 5664 5668 5673 5674 5675 5679 5682 5684 5683 5683 5688 5694 5697 5701 5705 5705 5713 5727 5732 5734 5740 5741 5744 5754 5759 5761 5764 5764 5764 5766 5766 5767 5768
5425 5430 5434 5440 5445 5449 5452 5453 5453 5458 5465 5473 5481 5487 5493 5498 5502 5506 5509 5513 5516 5519 5523 5526 5529 5533 5536 5539 5543 5546 5549 5551 5553 5556 5560 5565 5571 5579 5588 5596 5602 5606 5607 5608 5612 5618 5621 5625 5628 5629 5631 5636 5643 5649 5654 5657 5663 5668 5667 5669 5675 5676 5676 5676 5677 5683 5690 5692 5697 5701 5698 5703 5716 5723 5727 5732 5734 5738 5748 5754 5757 5759 5760 5760 5761 5762 5763 5764
5424 5428 5435 5441 5443 5446 5448 5448 5451 5457 5464 5472 5480 5485 5490 5494 5498 5501 5505 5509 5512 5515 5519 5522 5526 5530 5533 5536 5539 5542 5544 5547 5548 5552 5557 5562 5567 5577 5586 5591 5595 5599 5600 5602 5606 5612 5616 5618 5621 5626 5630 5635 5638 5641 5645 5650 5654 5654 5654 5661 5666 5666 5669 5673 5675 5681 5685 5686 5692 5692 5687 5694 5710 5719 5722 5725 5729 5734 5742 5750 5753 5754 5756 5756 5757 5759 5760 5761
5421 5427 5434 5439 5441 5444 5444 5444 5449 5457 5464 5471 5476 5481 5486 5491 5494 5498 5502 5506 5508 5512 5515 5519 5522 5526 5529 5532 5535 5538 5541 5543 5545 5550 5554 5557 5563 5573 5579 5583 5586 5589 5592 5597 5602 5606 5609 5612 5616 5621 5623 5626 5628 5631 5635 5639 5641 5642 5648 5655 5659 5662 5666 5667 5669 5672 5672 5677 5685 5684 5682 5696 5711 5716 5718 5720 5725 5731 5737 5744 5748 5748 5751 5752 5753 5755 5756 5756
5421 5426 5430 5434 5437 5439 5440 5444 5452 5459 5464 5468 5472 5477 5482 5486 5490 5495 5499 5501 5504 5508 5511 5515 5518 5521 5524 5527 5530 5534 5537 5539 5543 5547 5550 5552 5558 5565 5570 5574 5579 5583 5589 5595 5599 5601 5602 5605 5609 5613 5614 5616 5620 5623 5627 5632 5636 5640 5646 5650 5654 5657 5658 5659 5663 5663 5661 5671 5679 5677 5684 5699 5707 5710 5712 5715 5720 5726 5730 5735 5739 5742 5744 5746 5748 5749 5750 5750
5420 5422 5423 5427 5431 5434 5438 5444 5451 5455 5460 5465 5469 5474 5479 5484 5488 5492 5494 5496 5500 5504 5507 5510 5512 5515 5518 5521 5525 5529 5532 5536 5540 5542 5545 5548 5553 5558 5563 5567 5572 5577 5585 5591 5592 5593 5594 5596 5600 5604 5609 5615 5620 5623 5627 5631 5633 5636 5642 5647 5650 5652 5654 5656 5656 5653 5659 5671 5673 5673 5687 5697 5699 5703 5707 5708 5712 5716 5719 5724 5731 5736 5737 5740 5742 5741 5741 5741
5417 5418 5418 5421 5425 5429 5434 5439 5445 5451 5458 5464 5468 5473 5478 5482 5485 5488 5490 5493 5497 5500 5503 5505 5507 5510 5514 5517 5522 5525 5528 5532 5534 5538 5542 5545 5550 5555 5559 5562 5567 5573 5579 5584 5586 5588 5589 5590 5595 5600 5605 5612 5617 5618 5621 5625 5628 5633 5640 5643 5644 5648 5649 5648 5647 5650 5661 5664 5661 5672 5687 5688 5691 5700 5701 5700 5704 5707 5710 5716 5722 5726 5728 5731 5733 5731 5732 5734
5414 5416 5418 5422 5425 5428 5433 5439 5446 5451 5456 5460 5464 5470 5474 5478 5481 5485 5488 5491 5493 5496 5498 5501 5503 5507 5512 5516 5519 5522 5525 5527 5530 5534 5538 5542 5546 5550 5553 5557 5562 5567 5573 5576 5579 5582 5583 5587 5595 5599 5603 5608 5611 5611 5616 5620 5623 5628 5632 5634 5637 5640 5639 5640 5644 5651 5657 5653 5657 5675 5683 5679 5687 5695 5693 5693 5696 5698 5701 5705 5708 5713 5716 5719 5721 5722 5725 5729
5412 5415 5417 5421 5426 5432 5439 5444 5447 5449 5453 5456 5460 5465 5469 5473 5478 5483 5486 5487 5489 5492 5495 5498 5503 5507 5510 5513 5514 5516 5520 5523 5526 5530 5535 5539 5543 5546 5549 5553 5557 5562 5567 5570 5574 5577 5579 5584 5590 5594 5598 5602 5603 5605 5611 5613 5615 5619 5622 5625 5629 5631 5633 5637 5642 5648 5651 5649 5657 5671 5672 5670 5680 5687 5686 5687 5687 5688 5693 5696 5698 5704 5708 5711 5714 5716 5720 5724
5412 5415 5417 5420 5425 5431 5436 5439 5441 5445 5450 5454 5457 5463 5467 5471 5476 5479 5481 5482 5486 5490 5493 5497 5502 5505 5507 5509 5510 5512 5517 5521 5526 5530 5534 5537 5540 5544 5547 5551 5555 5561 5563 5566 5571 5574 5575 5579 5584 5587 5590 5593 5595 5601 5605 5605 5607 5611 5614 5618 5622 5624 5627 5630 5635 5641 5643 5643 5652 5661 5660 5664 5676 5682 5681 5681 5681 5683 5687 5690 5693 5696 5700 5704 5708 5711 5714 5716
5410 5413 5416 5419 5425 5429 5431 5435 5438 5442 5446 5450 5455 5462 5466 5470 5474 5476 5478 5480 5484 5487 5490 5495 5500 5501 5502 5504 5506 5510 5517 5521 5524 5528 5531 5533 5537 5542 5546 5550 5554 5557 5559 5563 5566 5567 5570 5574 5578 5579 5578 5581 5589 5596 5597 5599 5602 5601 5602 5608 5614 5617 5621 5625 5631 5636 5637 5640 5649 5652 5652 5662 5674 5676 5675 5677 5679 5679 5680 5684 5687 5689 5693 5697 5701 5704 5706 5706
5407 5410 5412 5416 5421 5425 5429 5432 5435 5438 5443 5449 5456 5461 5464 5468 5470 5471 5473 5476 5479 5483 5486 5490 5495 5496 5497 5500 5504 5512 5518 5519 5521 5524 5526 5528 5532 5536 5539 5543 5548 5550 5553 5557 5559 5562 5566 5568 5571 5571 5570 5577 5586 5590 5593 5595 5591 5586 5593 5604 5610 5614 5618 5622 5625 5630 5633 5637 5641 5643 5650 5661 5666 5666 5670 5674 5673 5672 5673 5676 5678 5681 5686 5690 5694 5697 5698 5697